Location: Newark
(25.4297°S, 49.2719°W)
Time: 02:10:06
(UTC+00:00)

Tiangong - Pass Details

Date: 24 June 2021
Orbit: 373 x 386 km, 41.5° (Epoch: 02 August)

Event Time Altitude Azimuth Distance (km) Brightness Sun altitude
Rises 21:16:45 0° 219° (SW) 2,266 5.2 -9.2°
Reaches altitude 10° 21:19:21 10° 198° (SSW) 1,405 3.9 -9.7°
Maximum altitude 21:21:31 17° 154° (SSE) 1,062 2.9 -10.2°
Enters shadow 21:22:34 15° 130° (SE) 1,147 2.9 -10.4°
